Time,TemperatureF,DewpointF,PressureIn,WindDirection,WindDirectionDegrees,WindSpeedMPH,WindSpeedGustMPH,Humidity,HourlyPrecipIn,Conditions,Clouds,dailyrainin,SoftwareType,DateUTC
2013-03-27 00:03:00,36.0,24.0,30.16,NW,312,2.0,6.0,61,0.00,,,0.00,,2013-03-27 04:03:00,
2013-03-27 00:13:00,36.0,24.0,30.16,NW,312,2.0,6.0,61,0.00,,,0.00,,2013-03-27 04:13:00,
2013-03-27 00:23:00,36.0,25.0,30.17,NW,324,0.0,1.0,64,0.00,,,0.00,,2013-03-27 04:23:00,
2013-03-27 00:33:00,34.0,25.0,30.17,WSW,251,1.0,3.0,68,0.00,,,0.00,,2013-03-27 04:33:00,
2013-03-27 00:43:00,34.0,25.0,30.17,WSW,251,1.0,3.0,68,0.00,,,0.00,,2013-03-27 04:43:00,
2013-03-27 00:53:00,33.0,25.0,30.17,NE,55,2.0,3.0,71,0.00,,,0.00,,2013-03-27 04:53:00,
2013-03-27 01:02:00,34.0,25.0,30.17,NW,315,2.0,5.0,69,0.00,,,0.00,,2013-03-27 05:02:00,
2013-03-27 01:12:00,34.0,25.0,30.17,NW,315,2.0,5.0,69,0.00,,,0.00,,2013-03-27 05:12:00,
2013-03-27 01:23:00,35.0,25.0,30.17,WNW,288,2.0,5.0,66,0.00,,,0.00,,2013-03-27 05:23:00,
2013-03-27 01:33:00,35.0,25.0,30.17,West,263,2.0,4.0,66,0.00,,,0.00,,2013-03-27 05:33:00,
2013-03-27 01:42:00,35.0,25.0,30.17,West,263,2.0,4.0,66,0.00,,,0.00,,2013-03-27 05:42:00,
2013-03-27 01:53:00,34.0,24.0,30.17,NE,55,0.0,1.0,67,0.00,,,0.00,,2013-03-27 05:53:00,
2013-03-27 02:02:00,33.0,24.0,30.18,NNE,17,1.0,2.0,70,0.00,,,0.00,,2013-03-27 06:02:00,
2013-03-27 02:12:00,33.0,24.0,30.18,NNE,17,1.0,2.0,70,0.00,,,0.00,,2013-03-27 06:12:00,
2013-03-27 02:22:00,35.0,26.0,30.17,NNW,328,2.0,6.0,70,0.00,,,0.00,,2013-03-27 06:22:00,
2013-03-27 02:32:00,36.0,27.0,30.17,NW,324,1.0,4.0,69,0.00,,,0.00,,2013-03-27 06:32:00,
2013-03-27 02:42:00,36.0,27.0,30.17,NW,324,1.0,4.0,69,0.00,,,0.00,,2013-03-27 06:42:00,
2013-03-27 02:53:00,36.0,27.0,30.17,West,278,2.0,6.0,69,0.00,,,0.00,,2013-03-27 06:53:00,
2013-03-27 03:02:00,36.0,27.0,30.17,NW,309,2.0,10.0,70,0.00,,,0.00,,2013-03-27 07:02:00,
2013-03-27 03:12:00,36.0,27.0,30.17,NW,309,2.0,10.0,70,0.00,,,0.00,,2013-03-27 07:12:00,
2013-03-27 03:22:00,36.0,27.0,30.17,NW,315,0.0,6.0,69,0.00,,,0.00,,2013-03-27 07:22:00,
2013-03-27 03:32:00,35.0,26.0,30.16,North,350,1.0,5.0,69,0.00,,,0.00,,2013-03-27 07:32:00,
2013-03-27 03:53:00,35.0,26.0,30.16,NNW,348,1.0,2.0,70,0.00,,,0.00,,2013-03-27 07:53:00,
2013-03-27 04:02:00,34.0,26.0,30.16,NNW,328,0.0,3.0,71,0.00,,,0.00,,2013-03-27 08:02:00,
2013-03-27 04:12:00,34.0,26.0,30.16,NNW,328,0.0,3.0,71,0.00,,,0.00,,2013-03-27 08:12:00,
2013-03-27 04:22:00,34.0,26.0,30.17,NW,317,3.0,8.0,71,0.00,,,0.00,,2013-03-27 08:22:00,
2013-03-27 04:32:00,35.0,26.0,30.17,North,360,2.0,4.0,68,0.00,,,0.00,,2013-03-27 08:32:00,
2013-03-27 04:43:00,35.0,26.0,30.17,North,360,2.0,4.0,68,0.00,,,0.00,,2013-03-27 08:43:00,
2013-03-27 04:52:00,34.0,25.0,30.17,NW,321,2.0,4.0,68,0.00,,,0.00,,2013-03-27 08:52:00,
2013-03-27 05:02:00,34.0,24.0,30.17,NW,311,2.0,6.0,66,0.00,,,0.00,,2013-03-27 09:02:00,
2013-03-27 05:12:00,34.0,24.0,30.17,NW,311,2.0,6.0,66,0.00,,,0.00,,2013-03-27 09:12:00,
2013-03-27 05:22:00,34.0,24.0,30.18,NNW,328,2.0,5.0,67,0.00,,,0.00,,2013-03-27 09:22:00,
2013-03-27 05:33:00,34.0,23.0,30.18,NW,323,3.0,6.0,65,0.00,,,0.00,,2013-03-27 09:33:00,
2013-03-27 05:42:00,34.0,23.0,30.18,NW,323,3.0,6.0,65,0.00,,,0.00,,2013-03-27 09:42:00,
2013-03-27 05:52:00,34.0,23.0,30.18,NW,319,1.0,5.0,64,0.00,,,0.00,,2013-03-27 09:52:00,
2013-03-27 06:02:00,34.0,22.0,30.19,NNW,335,4.0,8.0,62,0.00,,,0.00,,2013-03-27 10:02:00,
2013-03-27 06:12:00,34.0,22.0,30.19,NNW,335,4.0,8.0,62,0.00,,,0.00,,2013-03-27 10:12:00,
2013-03-27 06:23:00,34.0,22.0,30.18,WNW,294,1.0,9.0,62,0.00,,,0.00,,2013-03-27 10:23:00,
2013-03-27 06:32:00,34.0,22.0,30.19,North,355,3.0,7.0,62,0.00,,,0.00,,2013-03-27 10:32:00,
2013-03-27 06:42:00,34.0,22.0,30.19,North,355,3.0,7.0,62,0.00,,,0.00,,2013-03-27 10:42:00,
2013-03-27 06:53:00,34.0,23.0,30.19,NW,316,1.0,3.0,63,0.00,,,0.00,,2013-03-27 10:53:00,
2013-03-27 07:02:00,33.0,22.0,30.19,NNW,340,1.0,4.0,63,0.00,,,0.00,,2013-03-27 11:02:00,
2013-03-27 07:12:00,33.0,22.0,30.19,NNW,340,1.0,4.0,63,0.00,,,0.00,,2013-03-27 11:12:00,
2013-03-27 07:22:00,33.0,22.0,30.20,West,279,3.0,5.0,63,0.00,,,0.00,,2013-03-27 11:22:00,
2013-03-27 07:32:00,34.0,22.0,30.21,NW,311,2.0,9.0,62,0.00,,,0.00,,2013-03-27 11:32:00,
2013-03-27 07:42:00,34.0,22.0,30.21,NW,311,2.0,9.0,62,0.00,,,0.00,,2013-03-27 11:42:00,
2013-03-27 07:53:00,34.0,22.0,30.21,NW,325,3.0,5.0,62,0.00,,,0.00,,2013-03-27 11:53:00,
2013-03-27 08:02:00,34.0,23.0,30.21,NW,314,2.0,4.0,63,0.00,,,0.00,,2013-03-27 12:02:00,
2013-03-27 08:12:00,34.0,23.0,30.21,NW,314,2.0,4.0,63,0.00,,,0.00,,2013-03-27 12:12:00,
2013-03-27 08:23:00,34.0,22.0,30.22,NW,312,2.0,6.0,61,0.00,,,0.00,,2013-03-27 12:23:00,
2013-03-27 08:32:00,35.0,22.0,30.23,WNW,286,4.0,8.0,58,0.00,,,0.00,,2013-03-27 12:32:00,
2013-03-27 08:43:00,35.0,22.0,30.23,WNW,286,4.0,8.0,58,0.00,,,0.00,,2013-03-27 12:43:00,
2013-03-27 08:52:00,36.0,22.0,30.23,NW,311,5.0,11.0,56,0.00,,,0.00,,2013-03-27 12:52:00,
2013-03-27 09:02:00,37.0,23.0,30.23,WNW,291,2.0,7.0,56,0.00,,,0.00,,2013-03-27 13:02:00,
2013-03-27 09:12:00,37.0,23.0,30.23,WNW,291,2.0,7.0,56,0.00,,,0.00,,2013-03-27 13:12:00,
2013-03-27 09:22:00,36.0,21.0,30.24,NW,321,3.0,11.0,55,0.00,,,0.00,,2013-03-27 13:22:00,
2013-03-27 09:32:00,36.0,22.0,30.24,NNW,346,4.0,8.0,56,0.00,,,0.00,,2013-03-27 13:32:00,
2013-03-27 09:42:00,36.0,22.0,30.24,NNW,346,4.0,8.0,56,0.00,,,0.00,,2013-03-27 13:42:00,
2013-03-27 09:53:00,36.0,22.0,30.24,NW,308,5.0,11.0,56,0.00,,,0.00,,2013-03-27 13:53:00,
2013-03-27 10:02:00,37.0,22.0,30.25,NW,317,4.0,14.0,54,0.00,,,0.00,,2013-03-27 14:02:00,
2013-03-27 10:12:00,37.0,22.0,30.25,NW,317,4.0,14.0,54,0.00,,,0.00,,2013-03-27 14:12:00,
2013-03-27 10:22:00,37.0,21.0,30.25,NE,42,5.0,12.0,52,0.00,,,0.00,,2013-03-27 14:22:00,
2013-03-27 10:32:00,37.0,20.0,30.25,NW,315,7.0,13.0,50,0.00,,,0.00,,2013-03-27 14:32:00,
2013-03-27 10:42:00,37.0,20.0,30.25,NW,315,7.0,13.0,50,0.00,,,0.00,,2013-03-27 14:42:00,
2013-03-27 10:52:00,38.0,21.0,30.25,NNW,340,5.0,10.0,49,0.00,,,0.00,,2013-03-27 14:52:00,
2013-03-27 11:02:00,39.0,22.0,30.26,NW,313,3.0,12.0,50,0.00,,,0.00,,2013-03-27 15:02:00,
2013-03-27 11:12:00,39.0,22.0,30.26,NW,313,3.0,12.0,50,0.00,,,0.00,,2013-03-27 15:12:00,
2013-03-27 11:23:00,38.0,21.0,30.27,NW,311,7.0,13.0,50,0.00,,,0.00,,2013-03-27 15:23:00,
2013-03-27 11:33:00,39.0,21.0,30.27,NE,49,7.0,15.0,48,0.00,,,0.00,,2013-03-27 15:33:00,
2013-03-27 11:42:00,39.0,21.0,30.27,NE,49,7.0,15.0,48,0.00,,,0.00,,2013-03-27 15:42:00,
2013-03-27 11:53:00,40.0,22.0,30.27,NW,323,4.0,13.0,49,0.00,,,0.00,,2013-03-27 15:53:00,
2013-03-27 12:03:00,39.0,20.0,30.27,North,351,7.0,13.0,46,0.00,,,0.00,,2013-03-27 16:03:00,
2013-03-27 12:13:00,39.0,20.0,30.27,North,351,7.0,13.0,46,0.00,,,0.00,,2013-03-27 16:13:00,
2013-03-27 12:22:00,40.0,21.0,30.27,North,355,6.0,11.0,46,0.00,,,0.00,,2013-03-27 16:22:00,
2013-03-27 12:32:00,40.0,20.0,30.27,NE,41,5.0,12.0,45,0.00,,,0.00,,2013-03-27 16:32:00,
2013-03-27 12:42:00,40.0,20.0,30.27,NE,41,5.0,12.0,45,0.00,,,0.00,,2013-03-27 16:42:00,
2013-03-27 12:52:00,41.0,20.0,30.27,NW,313,6.0,11.0,42,0.00,,,0.00,,2013-03-27 16:52:00,
2013-03-27 13:03:00,42.0,22.0,30.27,NNW,329,5.0,14.0,44,0.00,,,0.00,,2013-03-27 17:03:00,
2013-03-27 13:12:00,42.0,22.0,30.27,NNW,329,5.0,14.0,44,0.00,,,0.00,,2013-03-27 17:12:00,
2013-03-27 13:22:00,42.0,20.0,30.27,NNW,339,6.0,17.0,41,0.00,,,0.00,,2013-03-27 17:22:00,
2013-03-27 13:32:00,42.0,21.0,30.26,NE,34,6.0,10.0,43,0.00,,,0.00,,2013-03-27 17:32:00,
2013-03-27 13:44:00,42.0,21.0,30.26,NE,34,6.0,10.0,43,0.00,,,0.00,,2013-03-27 17:44:00,
2013-03-27 13:52:00,42.0,23.0,30.26,WNW,283,3.0,15.0,46,0.00,,,0.00,,2013-03-27 17:52:00,
2013-03-27 14:02:00,42.0,21.0,30.26,WNW,286,6.0,15.0,42,0.00,,,0.00,,2013-03-27 18:02:00,
2013-03-27 14:12:00,42.0,21.0,30.26,WNW,286,6.0,15.0,42,0.00,,,0.00,,2013-03-27 18:12:00,
2013-03-27 14:23:00,41.0,20.0,30.26,NW,308,7.0,16.0,42,0.00,,,0.00,,2013-03-27 18:23:00,
2013-03-27 14:32:00,43.0,22.0,30.25,NW,326,5.0,13.0,42,0.00,,,0.00,,2013-03-27 18:32:00,
2013-03-27 14:42:00,43.0,22.0,30.25,NW,326,5.0,13.0,42,0.00,,,0.00,,2013-03-27 18:42:00,
2013-03-27 14:53:00,43.0,21.0,30.25,NNW,333,5.0,15.0,41,0.00,,,0.00,,2013-03-27 18:53:00,
2013-03-27 15:02:00,43.0,22.0,30.25,NW,315,8.0,21.0,42,0.00,,,0.00,,2013-03-27 19:02:00,
2013-03-27 15:12:00,43.0,22.0,30.25,NW,315,8.0,21.0,42,0.00,,,0.00,,2013-03-27 19:12:00,
2013-03-27 15:22:00,44.0,21.0,30.25,NW,312,5.0,17.0,40,0.00,,,0.00,,2013-03-27 19:22:00,
2013-03-27 15:32:00,44.0,21.0,30.25,NW,312,5.0,17.0,40,0.00,,,0.00,,2013-03-27 19:32:00,
2013-03-27 15:42:00,44.0,21.0,30.25,NW,312,5.0,17.0,40,0.00,,,0.00,,2013-03-27 19:42:00,
2013-03-27 15:52:00,44.0,21.0,30.25,NW,312,5.0,17.0,40,0.00,,,0.00,,2013-03-27 19:52:00,
2013-03-27 16:22:00,44.0,22.0,30.22,NNW,348,4.0,12.0,41,0.00,,,0.00,,2013-03-27 20:22:00,
2013-03-27 16:32:00,44.0,21.0,30.22,NW,310,6.0,13.0,40,0.00,,,0.00,,2013-03-27 20:32:00,
2013-03-27 16:43:00,44.0,21.0,30.22,NW,310,6.0,13.0,40,0.00,,,0.00,,2013-03-27 20:43:00,
2013-03-27 16:52:00,44.0,21.0,30.22,West,267,4.0,14.0,40,0.00,,,0.00,,2013-03-27 20:52:00,
2013-03-27 17:02:00,44.0,22.0,30.22,NW,305,5.0,12.0,42,0.00,,,0.00,,2013-03-27 21:02:00,
2013-03-27 17:12:00,44.0,22.0,30.22,NW,305,5.0,12.0,42,0.00,,,0.00,,2013-03-27 21:12:00,
2013-03-27 17:22:00,43.0,20.0,30.22,NNW,342,5.0,11.0,39,0.00,,,0.00,,2013-03-27 21:22:00,
2013-03-27 17:32:00,44.0,21.0,30.22,North,11,5.0,10.0,40,0.00,,,0.00,,2013-03-27 21:32:00,
2013-03-27 17:43:00,44.0,21.0,30.22,North,11,5.0,10.0,40,0.00,,,0.00,,2013-03-27 21:43:00,
2013-03-27 17:52:00,43.0,22.0,30.22,ENE,64,4.0,7.0,42,0.00,,,0.00,,2013-03-27 21:52:00,
2013-03-27 18:03:00,44.0,21.0,30.23,West,270,5.0,13.0,39,0.00,,,0.00,,2013-03-27 22:03:00,
2013-03-27 18:12:00,44.0,21.0,30.23,West,270,5.0,13.0,39,0.00,,,0.00,,2013-03-27 22:12:00,
2013-03-27 18:23:00,44.0,22.0,30.22,NW,320,4.0,10.0,42,0.00,,,0.00,,2013-03-27 22:23:00,
2013-03-27 18:33:00,44.0,21.0,30.23,WNW,288,5.0,11.0,40,0.00,,,0.00,,2013-03-27 22:33:00,
2013-03-27 18:42:00,44.0,21.0,30.23,WNW,288,5.0,11.0,40,0.00,,,0.00,,2013-03-27 22:42:00,
2013-03-27 18:53:00,44.0,21.0,30.23,NW,323,5.0,9.0,40,0.00,,,0.00,,2013-03-27 22:53:00,
2013-03-27 19:02:00,42.0,19.0,30.24,WNW,297,7.0,11.0,40,0.00,,,0.00,,2013-03-27 23:02:00,
2013-03-27 19:12:00,42.0,19.0,30.24,WNW,297,7.0,11.0,40,0.00,,,0.00,,2013-03-27 23:12:00,
2013-03-27 19:22:00,41.0,20.0,30.24,WNW,292,5.0,11.0,42,0.00,,,0.00,,2013-03-27 23:22:00,
2013-03-27 19:32:00,41.0,20.0,30.24,WNW,293,3.0,9.0,42,0.00,,,0.00,,2013-03-27 23:32:00,
2013-03-27 19:42:00,41.0,20.0,30.24,WNW,293,3.0,9.0,42,0.00,,,0.00,,2013-03-27 23:42:00,
2013-03-27 19:52:00,41.0,21.0,30.25,WNW,286,3.0,11.0,44,0.00,,,0.00,,2013-03-27 23:52:00,
2013-03-27 20:02:00,40.0,20.0,30.25,NW,314,3.0,6.0,45,0.00,,,0.00,,2013-03-28 00:02:00,
2013-03-27 20:12:00,40.0,20.0,30.25,NW,314,3.0,6.0,45,0.00,,,0.00,,2013-03-28 00:12:00,
2013-03-27 20:22:00,39.0,20.0,30.25,NW,312,3.0,7.0,46,0.00,,,0.00,,2013-03-28 00:22:00,
2013-03-27 20:33:00,39.0,20.0,30.25,NW,304,2.0,3.0,46,0.00,,,0.00,,2013-03-28 00:33:00,
2013-03-27 20:43:00,39.0,20.0,30.25,NW,304,2.0,3.0,46,0.00,,,0.00,,2013-03-28 00:43:00,
2013-03-27 20:52:00,38.0,21.0,30.25,West,263,2.0,3.0,50,0.00,,,0.00,,2013-03-28 00:52:00,
2013-03-27 21:02:00,37.0,20.0,30.25,West,281,1.0,2.0,50,0.00,,,0.00,,2013-03-28 01:02:00,
2013-03-27 21:12:00,37.0,20.0,30.25,West,281,1.0,2.0,50,0.00,,,0.00,,2013-03-28 01:12:00,
2013-03-27 21:22:00,37.0,21.0,30.26,West,279,1.0,3.0,53,0.00,,,0.00,,2013-03-28 01:22:00,
2013-03-27 21:32:00,36.0,20.0,30.25,WNW,285,0.0,2.0,52,0.00,,,0.00,,2013-03-28 01:32:00,
2013-03-27 21:42:00,36.0,20.0,30.25,WNW,285,0.0,2.0,52,0.00,,,0.00,,2013-03-28 01:42:00,
2013-03-27 21:53:00,36.0,21.0,30.26,WNW,292,0.0,2.0,54,0.00,,,0.00,,2013-03-28 01:53:00,
2013-03-27 22:02:00,35.0,22.0,30.26,West,269,1.0,3.0,58,0.00,,,0.00,,2013-03-28 02:02:00,
2013-03-27 22:12:00,35.0,22.0,30.26,West,269,1.0,3.0,58,0.00,,,0.00,,2013-03-28 02:12:00,
2013-03-27 22:22:00,34.0,21.0,30.26,West,269,0.0,2.0,59,0.00,,,0.00,,2013-03-28 02:22:00,
2013-03-27 22:32:00,34.0,21.0,30.27,West,275,0.0,2.0,59,0.00,,,0.00,,2013-03-28 02:32:00,
2013-03-27 22:42:00,34.0,21.0,30.27,West,275,0.0,2.0,59,0.00,,,0.00,,2013-03-28 02:42:00,
2013-03-27 22:52:00,34.0,21.0,30.27,West,275,0.0,2.0,59,0.00,,,0.00,,2013-03-28 02:52:00,
2013-03-27 23:02:00,32.0,21.0,30.26,West,275,0.0,1.0,63,0.00,,,0.00,,2013-03-28 03:02:00,
2013-03-27 23:12:00,32.0,21.0,30.26,West,275,0.0,1.0,63,0.00,,,0.00,,2013-03-28 03:12:00,
2013-03-27 23:22:00,33.0,21.0,30.26,NW,315,1.0,4.0,62,0.00,,,0.00,,2013-03-28 03:22:00,
2013-03-27 23:33:00,35.0,21.0,30.27,NW,315,2.0,4.0,57,0.00,,,0.00,,2013-03-28 03:33:00,
2013-03-27 23:43:00,35.0,21.0,30.27,NW,315,2.0,4.0,57,0.00,,,0.00,,2013-03-28 03:43:00,
2013-03-27 23:53:00,35.0,21.0,30.27,WNW,286,3.0,4.0,56,0.00,,,0.00,,2013-03-28 03:53:00,